LIC0209 LEBA-LEVD

Flight info

Callsign LIC0209
Flight time 0h 48m
Altitude 32000
Route HIJ DCT BBI DCT NUB
Aircraft A320/M-SDE3FGHIRWY/LB1

Departure

Time 2026-05-05 17:27
Airport Córdoba Airport (LEBA)

Arrival

Time 2026-05-05 18:15
Airport Valladolid Airport (LEVD)
Time Latitude Longitude Altitude Speed Heading
2026-05-05 17:08 37.84380 -4.84511 310 ft 0 kts 116°
2026-05-05 17:18 37.84386 -4.84529 310 ft 4 kts 87°
2026-05-05 17:18 37.84375 -4.84553 310 ft 4 kts 31°
2026-05-05 17:18 37.84370 -4.84557 310 ft 0 kts 29°
2026-05-05 17:23 37.84374 -4.84554 310 ft 4 kts 28°
2026-05-05 17:23 37.84404 -4.84528 310 ft 5 kts 49°
2026-05-05 17:24 37.84414 -4.84486 310 ft 7 kts 76°
2026-05-05 17:24 37.84456 -4.84451 309 ft 7 kts 351°
2026-05-05 17:24 37.84482 -4.84501 309 ft 7 kts 295°
2026-05-05 17:24 37.84510 -4.84566 310 ft 9 kts 298°
2026-05-05 17:25 37.84561 -4.84616 307 ft 10 kts
2026-05-05 17:25 37.84601 -4.84590 308 ft 10 kts 27°
2026-05-05 17:25 37.84667 -4.84529 307 ft 8 kts 51°
2026-05-05 17:25 37.84709 -4.84488 308 ft 11 kts 15°
2026-05-05 17:26 37.84736 -4.84521 308 ft 5 kts 245°
2026-05-05 17:26 37.84717 -4.84532 307 ft 0 kts 197°
2026-05-05 17:26 37.84675 -4.84555 308 ft 34 kts 205°
2026-05-05 17:26 37.84245 -4.84864 306 ft 105 kts 210°
2026-05-05 17:27 37.83443 -4.85419 369 ft 151 kts 210°
2026-05-05 17:27 37.82494 -4.86034 964 ft 154 kts 209°
2026-05-05 17:27 37.81555 -4.86676 1713 ft 153 kts 213°
2026-05-05 17:27 37.80715 -4.87486 2259 ft 156 kts 245°
2026-05-05 17:28 37.80527 -4.88872 2598 ft 173 kts 282°
2026-05-05 17:28 37.81169 -4.90229 2877 ft 196 kts 322°
2026-05-05 17:28 37.82482 -4.90831 3370 ft 206 kts 345°
2026-05-05 17:28 37.83885 -4.91215 3980 ft 206 kts 345°
2026-05-05 17:29 37.85287 -4.91592 4601 ft 207 kts 345°
2026-05-05 17:29 37.86700 -4.91976 5171 ft 210 kts 346°
2026-05-05 17:29 37.88192 -4.92386 5482 ft 231 kts 346°
2026-05-05 17:29 37.89849 -4.92842 5879 ft 255 kts 346°
2026-05-05 17:30 37.91615 -4.93327 6628 ft 263 kts 346°
2026-05-05 17:30 37.93415 -4.93823 7454 ft 268 kts 345°
2026-05-05 17:30 37.95260 -4.94336 8255 ft 274 kts 345°
2026-05-05 17:30 37.97141 -4.94861 9135 ft 279 kts 344°
2026-05-05 17:31 37.99056 -4.95397 9970 ft 284 kts 344°
2026-05-05 17:31 38.01048 -4.95958 10396 ft 305 kts 344°
2026-05-05 17:31 38.03198 -4.96567 10681 ft 327 kts 344°
2026-05-05 17:31 38.05452 -4.97201 11335 ft 334 kts 344°
2026-05-05 17:32 38.07736 -4.97837 12092 ft 338 kts 344°
2026-05-05 17:32 38.10043 -4.98478 12914 ft 340 kts 343°
2026-05-05 17:32 38.12326 -4.99114 13759 ft 341 kts 343°
2026-05-05 17:32 38.14647 -4.99763 14455 ft 343 kts 343°
2026-05-05 17:33 38.16995 -5.00421 15088 ft 347 kts 343°
2026-05-05 17:33 38.19369 -5.01089 15699 ft 352 kts 343°
2026-05-05 17:33 38.21779 -5.01767 16298 ft 357 kts 343°
2026-05-05 17:33 38.24224 -5.02458 16890 ft 362 kts 342°
2026-05-05 17:34 38.26698 -5.03156 17498 ft 366 kts 342°
2026-05-05 17:34 38.29203 -5.03862 18098 ft 371 kts 342°
2026-05-05 17:34 38.31737 -5.04579 18628 ft 375 kts 342°
2026-05-05 17:34 38.34297 -5.05302 19146 ft 379 kts 342°
2026-05-05 17:35 38.36882 -5.06031 19674 ft 382 kts 342°
2026-05-05 17:35 38.39487 -5.06768 20209 ft 385 kts 342°
2026-05-05 17:35 38.42108 -5.07512 20739 ft 388 kts 342°
2026-05-05 17:35 38.44751 -5.08261 21265 ft 390 kts 342°
2026-05-05 17:36 38.47409 -5.09012 21784 ft 393 kts 342°
2026-05-05 17:36 38.50087 -5.09767 22293 ft 396 kts 343°
2026-05-05 17:36 38.52844 -5.10252 22775 ft 402 kts 349°
2026-05-05 17:36 38.55638 -5.10627 23287 ft 405 kts 348°
2026-05-05 17:37 38.58445 -5.11011 23739 ft 407 kts 348°
2026-05-05 17:37 38.60317 -5.11271 24005 ft 409 kts 348°
2026-05-05 17:37 38.64112 -5.11802 24540 ft 412 kts 347°
2026-05-05 17:37 38.66972 -5.12201 24933 ft 414 kts 347°
2026-05-05 17:38 38.69846 -5.12602 25317 ft 417 kts 347°
2026-05-05 17:38 38.72740 -5.13005 25678 ft 420 kts 347°
2026-05-05 17:38 38.75653 -5.13408 26048 ft 422 kts 347°
2026-05-05 17:38 38.78579 -5.13807 26467 ft 424 kts 347°
2026-05-05 17:39 38.81518 -5.14207 26866 ft 425 kts 347°
2026-05-05 17:39 38.84469 -5.14613 27241 ft 427 kts 346°
2026-05-05 17:39 38.87391 -5.15018 27587 ft 430 kts 346°
2026-05-05 17:39 38.90370 -5.15430 27945 ft 432 kts 346°
2026-05-05 17:40 38.93366 -5.15845 28304 ft 434 kts 346°
2026-05-05 17:40 38.96379 -5.16263 28642 ft 437 kts 346°
2026-05-05 17:40 38.99408 -5.16685 28982 ft 439 kts 346°
2026-05-05 17:40 39.02452 -5.17111 29355 ft 441 kts 346°
2026-05-05 17:41 39.05506 -5.17541 29686 ft 443 kts 346°
2026-05-05 17:41 39.08573 -5.17973 29998 ft 445 kts 346°
2026-05-05 17:41 39.11658 -5.18406 30254 ft 447 kts 346°
2026-05-05 17:41 39.14753 -5.18837 30515 ft 449 kts 346°
2026-05-05 17:42 39.17860 -5.19268 30790 ft 450 kts 346°
2026-05-05 17:42 39.20980 -5.19702 31116 ft 450 kts 346°
2026-05-05 17:42 39.24088 -5.20131 31507 ft 449 kts 346°
2026-05-05 17:42 39.27195 -5.20557 31849 ft 449 kts 346°
2026-05-05 17:43 39.30292 -5.20986 31944 ft 444 kts 346°
2026-05-05 17:43 39.36362 -5.21838 31961 ft 436 kts 346°
2026-05-05 17:44 39.42373 -5.22702 31960 ft 435 kts 346°
2026-05-05 17:44 39.48387 -5.23559 31965 ft 434 kts 346°
2026-05-05 17:45 39.54380 -5.24399 31957 ft 433 kts 346°
2026-05-05 17:45 39.60360 -5.25236 31956 ft 432 kts 346°
2026-05-05 17:46 39.66343 -5.26091 31948 ft 432 kts 346°
2026-05-05 17:46 39.72326 -5.26943 31980 ft 432 kts 346°
2026-05-05 17:47 39.78302 -5.27786 31973 ft 432 kts 346°
2026-05-05 17:47 39.84271 -5.28635 31962 ft 431 kts 346°
2026-05-05 17:48 39.90231 -5.29490 31955 ft 431 kts 346°
2026-05-05 17:48 39.96186 -5.30342 31978 ft 430 kts 346°
2026-05-05 17:49 40.02090 -5.31191 31978 ft 429 kts 346°
2026-05-05 17:49 40.08026 -5.32045 31971 ft 429 kts 346°
2026-05-05 17:50 40.13959 -5.32892 32000 ft 429 kts 346°
2026-05-05 17:50 40.19883 -5.33739 31980 ft 428 kts 347°
2026-05-05 17:51 40.24803 -5.34446 31975 ft 428 kts 347°
2026-05-05 17:51 40.30728 -5.35310 31977 ft 428 kts 346°
2026-05-05 17:52 40.36691 -5.36174 32009 ft 428 kts 347°
2026-05-05 17:52 40.42565 -5.37021 32007 ft 428 kts 346°
2026-05-05 17:53 40.48481 -5.37883 32003 ft 427 kts 346°
2026-05-05 17:53 40.54473 -5.38765 31989 ft 438 kts 346°
2026-05-05 17:54 40.60545 -5.39657 31989 ft 439 kts 347°
2026-05-05 17:54 40.66624 -5.40544 31991 ft 440 kts 347°
2026-05-05 17:55 40.72710 -5.41422 31991 ft 440 kts 347°
2026-05-05 17:55 40.78789 -5.42308 31154 ft 441 kts 346°
2026-05-05 17:55 40.81842 -5.42759 29834 ft 439 kts 346°
2026-05-05 17:56 40.84850 -5.43202 28624 ft 430 kts 346°
2026-05-05 17:56 40.87794 -5.43633 27499 ft 421 kts 346°
2026-05-05 17:56 40.90668 -5.44054 26437 ft 411 kts 346°
2026-05-05 17:56 40.93483 -5.44465 25420 ft 403 kts 346°
2026-05-05 17:57 40.96236 -5.44866 24429 ft 394 kts 346°
2026-05-05 17:57 40.98960 -5.45071 23437 ft 393 kts 355°
2026-05-05 17:57 41.01672 -5.44532 22368 ft 397 kts
2026-05-05 17:57 41.04262 -5.43210 21312 ft 402 kts 21°
2026-05-05 17:58 41.06582 -5.41200 20733 ft 391 kts 28°
2026-05-05 17:58 41.08757 -5.39176 20249 ft 374 kts 28°
2026-05-05 17:58 41.10854 -5.37251 19758 ft 361 kts 28°
2026-05-05 17:58 41.12897 -5.35398 19276 ft 360 kts 28°
2026-05-05 17:59 41.14964 -5.33532 18786 ft 360 kts 29°
2026-05-05 17:59 41.17033 -5.31661 18283 ft 360 kts 30°
2026-05-05 17:59 41.19099 -5.29788 17756 ft 359 kts 31°
2026-05-05 17:59 41.21149 -5.27915 17242 ft 357 kts 31°
2026-05-05 18:00 41.23189 -5.26044 16774 ft 355 kts 31°
2026-05-05 18:00 41.25217 -5.24179 16285 ft 354 kts 31°
2026-05-05 18:00 41.27234 -5.22322 15810 ft 352 kts 31°
2026-05-05 18:00 41.29245 -5.20470 15330 ft 351 kts 32°
2026-05-05 18:01 41.31249 -5.18623 14864 ft 350 kts 32°
2026-05-05 18:01 41.33243 -5.16787 14396 ft 349 kts 32°
2026-05-05 18:01 41.35238 -5.14952 13922 ft 348 kts 32°
2026-05-05 18:01 41.37223 -5.13123 13415 ft 347 kts 32°
2026-05-05 18:02 41.39202 -5.11295 12926 ft 345 kts 32°
2026-05-05 18:02 41.41163 -5.09482 12454 ft 342 kts 32°
2026-05-05 18:02 41.43115 -5.07679 11968 ft 340 kts 32°
2026-05-05 18:02 41.45055 -5.05889 11479 ft 338 kts 32°
2026-05-05 18:03 41.46988 -5.04108 11001 ft 337 kts 32°
2026-05-05 18:03 41.48906 -5.02336 10503 ft 331 kts 32°
2026-05-05 18:03 41.50741 -5.00632 10286 ft 309 kts 32°
2026-05-05 18:03 41.52459 -4.99032 9899 ft 296 kts 32°
2026-05-05 18:04 41.54128 -4.97481 9688 ft 292 kts 32°
2026-05-05 18:04 41.55794 -4.95935 9555 ft 290 kts 32°
2026-05-05 18:04 41.57419 -4.94426 9426 ft 279 kts 32°
2026-05-05 18:04 41.59044 -4.92921 9161 ft 288 kts 32°
2026-05-05 18:05 41.60692 -4.91391 8770 ft 288 kts 32°
2026-05-05 18:05 41.62332 -4.89864 8383 ft 287 kts 32°
2026-05-05 18:05 41.63966 -4.88339 7986 ft 286 kts 32°
2026-05-05 18:05 41.65592 -4.86821 7591 ft 284 kts 32°
2026-05-05 18:06 41.67206 -4.85316 7210 ft 283 kts 32°
2026-05-05 18:06 41.68273 -4.84322 6963 ft 282 kts 32°
2026-05-05 18:06 41.70385 -4.82349 6447 ft 270 kts 32°
2026-05-05 18:06 41.71888 -4.80943 6077 ft 258 kts 32°
2026-05-05 18:07 41.73304 -4.79618 5736 ft 246 kts 32°
2026-05-05 18:07 41.74673 -4.78337 5430 ft 235 kts 32°
2026-05-05 18:07 41.75994 -4.77102 5120 ft 228 kts 31°
2026-05-05 18:07 41.77272 -4.75904 4812 ft 221 kts 32°
2026-05-05 18:08 41.78550 -4.74861 4663 ft 205 kts 17°
2026-05-05 18:08 41.79870 -4.74703 4635 ft 180 kts 347°
2026-05-05 18:08 41.80991 -4.75217 4634 ft 162 kts 335°
2026-05-05 18:08 41.82002 -4.75802 4650 ft 159 kts 334°
2026-05-05 18:09 41.83053 -4.76314 4653 ft 163 kts 346°
2026-05-05 18:09 41.84190 -4.76333 4655 ft 166 kts
2026-05-05 18:09 41.85263 -4.75710 4646 ft 172 kts 33°
2026-05-05 18:09 41.86064 -4.74501 4652 ft 177 kts 58°
2026-05-05 18:10 41.86400 -4.72906 4643 ft 181 kts 85°
2026-05-05 18:10 41.86184 -4.71248 4650 ft 183 kts 112°
2026-05-05 18:10 41.85467 -4.69919 4648 ft 168 kts 140°
2026-05-05 18:10 41.84482 -4.69184 4646 ft 159 kts 165°
2026-05-05 18:11 41.83409 -4.69034 4641 ft 153 kts 189°
2026-05-05 18:11 41.82408 -4.69429 4648 ft 149 kts 212°
2026-05-05 18:11 41.81611 -4.70268 4651 ft 145 kts 230°
2026-05-05 18:11 41.80908 -4.71223 4634 ft 143 kts 230°
2026-05-05 18:12 41.80215 -4.72183 4630 ft 144 kts 231°
2026-05-05 18:12 41.79514 -4.73144 4633 ft 145 kts 228°
2026-05-05 18:12 41.78801 -4.74095 4633 ft 145 kts 230°
2026-05-05 18:12 41.78096 -4.75055 4601 ft 145 kts 230°
2026-05-05 18:13 41.77393 -4.76014 4461 ft 145 kts 231°
2026-05-05 18:13 41.76686 -4.76976 4300 ft 144 kts 230°
2026-05-05 18:13 41.75984 -4.77931 4119 ft 143 kts 230°
2026-05-05 18:13 41.75287 -4.78880 3924 ft 142 kts 230°
2026-05-05 18:14 41.74589 -4.79831 3721 ft 145 kts 231°
2026-05-05 18:14 41.73878 -4.80798 3514 ft 146 kts 231°
2026-05-05 18:14 41.73160 -4.81776 3286 ft 149 kts 230°
2026-05-05 18:14 41.72429 -4.82769 3067 ft 150 kts 229°
2026-05-05 18:15 41.71696 -4.83769 2872 ft 151 kts 230°
2026-05-05 18:15 41.70990 -4.84752 2783 ft 133 kts 226°
2026-05-05 18:15 41.70546 -4.85330 2778 ft 45 kts 225°
2026-05-05 18:15 41.70406 -4.85523 2780 ft 26 kts 226°
2026-05-05 18:16 41.70276 -4.85699 2781 ft 27 kts 227°
2026-05-05 18:16 41.70143 -4.85885 2779 ft 27 kts 227°
2026-05-05 18:16 41.70106 -4.86031 2775 ft 16 kts 294°
2026-05-05 18:16 41.70125 -4.86064 2775 ft 0 kts 311°
2026-05-05 18:17 41.70136 -4.86075 2774 ft 9 kts 323°
2026-05-05 18:17 41.70228 -4.86024 2776 ft 18 kts 45°
2026-05-05 18:17 41.70308 -4.85913 2779 ft 17 kts 45°
2026-05-05 18:18 41.70393 -4.85795 2778 ft 19 kts 47°
2026-05-05 18:18 41.70486 -4.85668 2779 ft 20 kts 45°
2026-05-05 18:18 41.70565 -4.85559 2775 ft 17 kts 47°
2026-05-05 18:18 41.70651 -4.85441 2775 ft 18 kts 45°
2026-05-05 18:19 41.70745 -4.85317 2775 ft 20 kts 44°
2026-05-05 18:19 41.70840 -4.85189 2778 ft 19 kts 45°
2026-05-05 18:19 41.70934 -4.85060 2779 ft 20 kts 46°
2026-05-05 18:19 41.71010 -4.84957 2781 ft 9 kts 44°
2026-05-05 18:20 41.71020 -4.84944 2782 ft 0 kts 45°
2026-05-05 18:22 41.71034 -4.84913 2782 ft 6 kts 74°
2026-05-05 18:22 41.71014 -4.84869 2782 ft 5 kts 149°
2026-05-05 18:22 41.70966 -4.84847 2783 ft 11 kts 163°
2026-05-05 18:23 41.70902 -4.84812 2783 ft 9 kts 149°
2026-05-05 18:23 41.70821 -4.84721 2784 ft 20 kts 138°
2026-05-05 18:23 41.70731 -4.84600 2783 ft 17 kts 118°
2026-05-05 18:23 41.70745 -4.84482 2783 ft 10 kts 49°
2026-05-05 18:24 41.70767 -4.84446 2784 ft 0 kts 51°